NOAA 16 DEB, 41158

Orbit data source: Space-Track

NOAA 16 DEB, 41158 is space debris in SSO originally from a launch on Thu, 21 Sep 2000 UTC launched from the Air Force Western Test Range (AFWTR). Debris objects in space refer to the collection of defunct objects orbiting the Earth. Examples of debris include non-operational satellites, rocket bodies, and fragments generated from explosions, collisions, or faulty payload assembly.

Loading next visibility...
Identifier
41158, 2000-055CR
Orbit
SSO
Country
Flag of USUS
Related business
Manufacturer
Unknown
Mission
Spacecraft
Bus & Motor
Unknown
Mass
Unknown
Launch date (UTC)
2000-09-21 (26 years ago)
Launch vehicle
Unknown
Launch site
Air Force Western Test Range (AFWTR)
Object type
Payload
Rocket body
Debris
Shape & HBR
Unknown shape, 0.1 m
Radar Cross Section
Medium (>0.1 m² and <1 m²)

Expand to show TLE details & history
Last TLE update: 4 days ago

TLE from 4 days ago
0 NOAA 16 DEB
1 41158U 00055CR  26169.67428292  .00004106  00000-0  12607-2 0  9992
2 41158  98.9676 332.5972 0011773 174.9738 185.1570 14.42157051547198
Epoch: 2026-06-18T16:10Z
TLE epoch observation values (Epoch: 2026-06-18T16:10:58.044Z)
Latitude
-0.00002°
Longitude
-177.05887°
Altitude
762.678 km
Speed
7.469 km/s
True Right ascension
22h 10m 23s
True Declination
0° 00' 00"
Sunlit
Object was in daylight at epoch
Visualization orbit readout
Latitude
Unknown
Longitude
Unknown
Altitude
Unknown
Speed
Unknown
Apparent Right ascension
Unknown
Apparent Declination
Unknown
Sunlit
N/A
Visualization observer readout
Local Sidereal Time
21:41:19
Azimuth
Unknown
Elevation
Unknown
Doppler factor
Unknown
Orbital elements
Apogee altitude
756.912 km
Perigee altitude
740.132 km
Semi-major axis
7,126.659 km
Eccentricity
0.00118
Inclination
98.9676°
RAAN
332.5972°
Arg. of periapsis
174.9738°
True anomaly
185.14489°
Mean anomaly
185.157°
Eccentric anomaly
185.15094°
Mean motion
3.60757 °/min
Orbital period
99.79 mins
BSTAR
0.0012607
Loading maneuver chart data...
Computing Atmospheric mass density...
Loading historical data...
Loading historical data...
Loading historical data...
Loading historical data...
Loading historical data...
Loading historical data...
Loading historical data...

Documentation

Showing up to 5 results
|